030  
ASUS41 KAKQ 121315  
RWRAKQ  
 
REGIONAL WEATHER ROUNDUP  
NATIONAL WEATHER SERVICE WAKEFIELD VA  
800 AM EST TUE DEC 12 2017  
 
NOTE: "FAIR" INDICATES FEW OR NO CLOUDS BELOW 12,000 FEET WITH NO  
SIGNIFICANT WEATHER AND/OR S TO VISIBILITY
. * = DENOTES  
STATION MAY NOT REPORT PRECIPITATION (E.G., RAIN,SNOW,ETC.),
 
THUNDER OR FOG.  
 
VAZ042-051-052>054-056-121400-  
NORTHERN VIRGINIA  
 
CITY SKY/WX TMP DP RH WIND PRES REMARKS
 
WASH NATIONAL CLOUDY 42 32 67 SW7 29.60F  
DULLES CLOUDY 37 31 78 NW3 29.60S  
FORT BELVOIR CLOUDY 42 32 68 S3 29.60F  
QUANTICO CLOUDY 42 33 70 SW7 29.62F  
FREDERICKSBRG* CLOUDY 41 33 73 SW5 29.61S  
STAFFORD* CLOUDY 39 32 75 SW3 29.65S  
WARRENTON CLOUDY 39 29 67 SW6 29.60S  
CULPEPER* MOCLDY 39 30 71 SW3 29.62S  
MANASSAS* CLOUDY 37 31 78 CALM 29.61S  
LEESBURG* CLOUDY 37 32 81 CALM 29.61F  
WINCHESTER CLOUDY 34 30 86 CALM 29.58F  
FRONT ROYAL* CLOUDY 36 30 80 CALM 29.57S  
LURAY* CLOUDY 43 32 65 SW10 29.58R  

 
 
VAZ048-049-060>072-079>083-121400-  
CENTRAL AND SOUTH CENTRAL VIRGINIA  
 
CITY SKY/WX TMP DP RH WIND PRES REMARKS
 
RICHMOND CLOUDY 39 33 79 S8 29.65F  
CHESTERFIELD* NOT AVBL  
PETERSBURG* PTCLDY 37 30 75 S5 29.67S  
HANOVER CLOUDY 39 32 76 S8 29.65F  
TAPPAHANNOCK* N/A N/A N/A N/A MISG N/A  
QUINTON* FAIR 39 32 76 SW6 29.65F  
CHARLOTTSVILLE MOCLDY 39 30 70 SW3 29.60R  
GORDONSVILLE* PTSUNNY 36 31 83 SW7 29.60F  
ORANGE* CLOUDY 36 32 87 CALM 29.60F  
LOUISA* CLOUDY 38 30 73 SW5 29.66S  
BUMPASS* FAIR 39 31 74 SW6 29.62S  
FARMVILLE* MOCLDY 39 35 83 SW5 29.63F  
CREWE* FAIR 39 35 84 SW3 29.66S  
FORT PICKETT* NOT AVBL  
CHASE CITY* FAIR 35 35 100 CALM 29.68S  
CLARKSVILLE* FAIR 36 32 87 SW7 29.68S  
SOUTH HILL* PTCLDY 37 34 89 S8 29.73F  
LAWRENCEVILLE* FAIR 38 32 81 CALM 29.68S  
EMPORIA* CLOUDY 36 32 87 S5 29.71F  

 
 
VAZ088>098-121400-  
SOUTHEAST VIRGINIA  
 
CITY SKY/WX TMP DP RH WIND PRES REMARKS
 
NORFOLK PTCLDY 43 34 70 SW16 29.68F  
VIRGINIA BEACH MOCLDY 43 33 68 SW14 29.69F  
NORFOLK NAVAL MOCLDY 43 33 68 SW12 29.70F  
WEST POINT* PTCLDY N/A N/A N/A S6 29.67F  
SALUDA* FAIR 42 34 71 S6 29.64F  
NEWPORT NEWS MOCLDY 42 33 70 SW12 29.68F  
LANGLEY AFB PTCLDY 43 34 71 SW16 29.67F  
FORT EUSTIS CLOUDY 43 34 71 S9 29.65F  
WILLIAMSBURG* PTCLDY 43 34 70 CALM 29.67F  
HR EXEC AP* FAIR 41 34 76 SW9 29.71S  
FRANKLIN* PTCLDY 40 33 77 SW8 29.70F  
US460-WAKEFLD PTCLDY 40 34 79 S9 29.67F  

 
 
VAZ020-022-025-037-045-121400-  
WEST CENTRAL AND SOUTHWEST VIRGINIA  
 
CITY SKY/WX TMP DP RH WIND PRES REMARKS
 
STAUNTON* CLOUDY 36 28 75 S5 29.61S  
WAYNESBORO* PTSUNNY 42 29 61 SW8 29.60R  
HOT SPRINGS VA CLOUDY 33 23 67 W21G29 29.57R WCI 20  
LYNCHBURG MOCLDY 36 30 79 SW3 29.64F  
DANVILLE PTCLDY 32 31 96 CALM 29.70S  
SOUTH BOSTON* FAIR 38 32 78 SW6 29.69S  
MARTINSVILLE CLOUDY 30 29 93 CALM 29.72S  
ROANOKE CLOUDY 43 31 62 SW7 29.67R  
BLACKSBURG MOCLDY 37 29 72 CALM 29.68S  
DUBLIN* CLOUDY 41 29 63 W16G25 29.68S  
MARION* CLOUDY 39 26 58 W13G21 29.70R  
HILLSVILLE* CLEAR 38 29 70 W9 29.65F  
RICHLANDS* CLOUDY 37 9 31 NW12G24 29.72S  
WISE* CLOUDY 36 30 80 W12G17 29.77R  
ABINGDON* CLOUDY 41 29 62 W8 29.75S  

 
 
MDZ021>025-VAZ099-100-121400-  
SOUTHERN MARYLAND AND THE DELMARVA PENINSULA  
 
CITY SKY/WX TMP DP RH WIND PRES REMARKS
 
PATUXENT RIVER CLOUDY 43 33 68 SW13 29.61F  
BAY BRIDGE APT CLOUDY 45 34 65 S13 29.60F  
LEONARDTOWN CLOUDY 41 32 70 S6 29.63F  
DOVER CLOUDY 43 37 80 S9 29.61F  
GEORGETOWN CLOUDY 43 33 68 S8 29.63F  
EASTON CLEAR 45 36 70 S8 29.64F  
CAMBRIDGE CLEAR 41 37 87 S8G14 29.62F  
SALISBURY CLOUDY 40 34 79 S7 29.63F  
OCEAN CITY PTCLDY 48 39 71 SW10 29.65F  
WALLOPS ISLAND MOCLDY 47 38 71 SW13 29.66F  
ACCOMACK* PTCLDY 46 36 69 SW8 29.66F  

 
 
NCZ012>017-030>032-121400-  
NORTH CENTRAL AND EASTERN NORTH CAROLINA  
 
CITY SKY/WX TMP DP RH WIND PRES REMARKS
 
ROANOKE RAPIDS FAIR 39 34 81 SW8 29.70F  
RALEIGH CLOUDY 40 34 79 SW9 29.72F  
ELIZABETH CITY CLEAR 45 40 82 S13 29.73F  
AHOSKIE* CLOUDY 39 34 82 S5 29.72F  
EDENTON* CLEAR 44 38 80 SW10 29.75F  
CURRITUCK* CLEAR 42 37 80 S7 29.72F  
KILL DEVIL HLS CLEAR 46 40 79 SW8G17 29.73F  
MANTEO CLEAR 46 42 86 SW14 29.76F  
CAPE HATTERAS CLEAR 59 45 59 SW17G29 29.79F  
TARBORO* NOT AVBL  
GOLDSBORO CLEAR 42 35 76 SW9 29.74F  
WASHINGTON CLEAR 41 36 80 SW7 29.76F  
GREENVILLE CLEAR 39 34 81 SW7 29.78S  
NEW BERN PTCLDY 45 39 79 S9 29.78F  
WILMINGTON CLEAR 49 40 71 SW9 29.80F  

 
 
VAZ048-121400-  
ELSEWHERE  
 
CITY SKY/WX TMP DP RH WIND PRES REMARKS
 
HARRISBURG PA CLOUDY 37 34 89 CALM 29.58F  
BALTIMORE CLOUDY 40 32 73 W5 29.59F  
ANNAPOLIS CLOUDY 43 34 70 VRB3 29.60F  
ANDREWS AFB CLOUDY 40 31 68 SW8 29.58F  
PHILADELPHIA CLOUDY 46 33 60 S10 29.61F  
HENDERSON NC CLOUDY 35 31 84 CALM 29.69F  
GREENSBORO MOCLDY 37 33 85 SW7 29.70S  
ROCKY MOUNT PTCLDY 41 36 82 S8 29.73F  

 
 
VAZ100-121400-  
MARINE  
 
STATION/POSITION TIME TEMP WIND PRES WAVE SWELL
 
AIR SEA DIR/SP/G HT/PER HT/PER  
(UTC) (F) (DEG/KT/KT) (MB) (FT/S) (FT/S)  
BRANDYWINE LGT 1248 48 200/ 20/ 23 1004.0F  
CAPE MAY NJ 1248 49 45 190/ 8/ 11 1003.4F  
LEWES DE 1248 47 47 200/ 7/ 11 1003.6F  
15NM E FENWICK I 1150 52 53 190/ 19/ 23 1005.6 5/ 5 2/ 9  
OCEAN-CITY-INLET 1248 50 49 220/ 17/ 20 1004.4F  
WACHAPREAGUE VA 1248 46 43 200/ 9/ 13 1004.3F  
THOMAS POINT MD 1200 45 47 190/ 16/ 18 N/A  
GOOSES REEF MD 1250 45 190/ 14/ 19 1003.0F  
COVE POINT MD 1248 43 220/ 15/ 20 1003.2F  
SOLOMONS ISLAND 1248 43 48 200/ 9/ 11 1002.7F  
BISHOPS HEAD MD 1248 45 42 200/ 13/ 16 1003.6F  
PINEY POINT MD 1248 240/ 7/ 8 N/A  
POTOMAC MD 1250 45 210/ 12/ 16 1002.8F  
CAMBRIDGE MD 1236 44 45 1003.5F  
LEWISETTA VA 1248 43 44 220/ 12/ 14 1002.8F  
RAPPAHANNOCK LGT 1248 200/ 22/ 25 1004.7F  
STINGRAY PT 1250 45 240/ 14/ 16 1004.4F  
YORK RVR RNG VA 1248 45 230/ 19/ 21 1004.7F  
YORKTOWN VA 1248 43 49 220/ 10/ 14 1004.4F  
JAMESTOWN VA 1250 230/ 6/ 10 N/A  
DOMINION TERM VA 1236 44 220/ 11/ 14 1005.6F  
KIPTOPEKE VA 1248 48 210/ 17/ 22 N/A  
CAPE HENRY VA 1248 44 200/ 11/ 18 N/A  
WILLOUBY STN VA 1248 210/ 18/ 21 1004.6F  
S CRANEY ISL VA 1248 43 210/ 10/ 14 1005.3F  
CAPE HENRY BUOY 1230 53 N/A 3/ 4  
1ST LANDING BUOY 1250 45 210/ 17/ 19 1005.3F  
CAPE CHARLES BUO 1251 53 N/A 4/ 4  
64NM E OF VA BCH 1250 55 60 220/ 21/ 25 1006.4F 5/ 4 2/ 9  
DUCK PIER NC 1248 46 55 190/ 14/ 18 1006.1F  
44100 DUCK FRF 1245 54 N/A 3/ 3  
44056 DUCK FRF 1300 54 N/A 2/ 8  
OREGON INLET NC 1236 51 46 190/ 16/ 18 1007.7F  
HATTERAS NC 1248 58 55 230/ 16/ 24 1008.3F  
DIAMOND SHLS NC 1250 63 74 230/ 23/ 31 1008.9F 6/ 6 2/ 8  
CAPE LOOKOUT NC 1200 230/ 12/ 16 1009.8F  

 
 
 
CLICK HERE TO GO TO PREVIOUS BULLETINS.

The Nexlab VA Page
The Nexlab NC Page
The Nexlab MD Page Main Text Page